K1VL Weather Reports


Display with metric or nautical units.
time (UTC)temp
F
wind
direction
speed
MPH
gust
MPH
rain 1hr
in
rain 24hr
in
rain mn
in
humidity
%
barometer
mb
20260906023036 58 0.0 1.0 0.00 0.02 0.02 94 1015.4
20260906022516 58 0.0 1.0 0.00 0.02 0.02 93 1015.3
20260906022036 58 203 1.0 2.0 0.00 0.02 0.02 93 1015.3
20260906021516 58 0.0 1.0 0.00 0.02 0.02 93 1015.3
20260906021016 59 203 1.0 4.0 0.00 0.02 0.02 92 1015.2
20260906020516 59 248 1.0 4.0 0.00 0.02 0.02 92 1015.0
20260906020016 59 90 2.0 6.0 0.00 0.02 0.02 92 1015.0
20260906015516 58 225 1.0 6.0 0.00 0.02 0.02 92 1015.1
20260906015016 59 68 1.0 6.0 0.00 0.02 0.02 93 1015.1
20260906014516 59 90 1.0 3.0 0.00 0.02 0.02 93 1015.0
20260906014036 59 113 2.0 5.0 0.00 0.02 0.02 94 1015.1
20260906013516 59 90 2.0 8.0 0.00 0.02 0.02 94 1015.1
20260906013036 59 158 1.0 3.0 0.00 0.02 0.02 94 1015.1
20260906012516 59 113 1.0 4.0 0.00 0.02 0.02 94 1015.0
20260906012016 59 315 1.0 6.0 0.00 0.02 0.02 94 1015.1
20260906011536 59 45 1.0 5.0 0.00 0.02 0.02 93 1015.1
20260906011016 59 68 2.0 7.0 0.00 0.02 0.02 93 1015.1
20260906010536 59 68 2.0 5.0 0.00 0.02 0.02 93 1015.0
20260906010016 60 90 2.0 6.0 0.00 0.02 0.02 93 1015.0
20260906005516 60 90 2.0 7.0 0.00 0.02 0.02 92 1015.0
20260906005016 60 68 2.0 10.0 0.00 0.02 0.02 92 1015.1
20260906004516 60 68 1.0 7.0 0.00 0.02 0.02 92 1015.2
20260906004016 60 315 2.0 5.0 0.00 0.02 0.02 92 1015.1
20260906003516 60 113 1.0 2.0 0.00 0.02 0.02 92 1015.0
20260906003016 60 293 1.0 4.0 0.00 0.02 0.02 93 1015.0
20260906002516 60 0.0 2.0 0.00 0.02 0.02 94 1015.0
20260906002036 60 68 2.0 6.0 0.00 0.02 0.02 96 1014.9
20260906001516 60 0.0 0.0 0.00 0.02 0.02 97 1014.9
20260906001016 60 0.0 0.0 0.00 0.02 0.02 97 1014.9
20260906000516 60 0.0 0.0 0.00 0.02 0.02 97 1014.9
20260906000016 60 0.0 0.0 0.00 0.02 0.02 97 1014.8
20260905235536 60 0.0 0.0 0.00 0.02 0.02 97 1014.9
20260905235016 60 0.0 0.0 0.00 0.02 0.02 97 1014.8
20260905234516 60 0.0 0.0 0.00 0.02 0.02 97 1014.7
20260905234016 60 0.0 0.0 0.00 0.02 0.02 96 1014.5
20260905233516 60 0.0 0.0 0.00 0.02 0.02 96 1014.4
20260905233016 60 0.0 0.0 0.00 0.02 0.02 96 1014.4
20260905232516 61 0.0 0.0 0.00 0.02 0.02 95 1014.5
20260905232016 61 0.0 1.0 0.00 0.02 0.02 95 1014.5
20260905231556 61 315 1.0 4.0 0.00 0.02 0.02 95 1014.4
20260905231016 61 293 1.0 3.0 0.00 0.02 0.02 95 1014.3
20260905230536 61 0.0 1.0 0.00 0.02 0.02 95 1014.3
20260905230016 61 315 2.0 5.0 0.00 0.02 0.02 95 1014.3
20260905225516 61 315 2.0 3.0 0.00 0.02 0.02 94 1014.2
20260905225016 62 0.0 2.0 0.00 0.02 0.02 94 1014.2
20260905224516 62 270 1.0 3.0 0.00 0.02 0.02 94 1014.2
20260905224016 62 0.0 1.0 0.00 0.02 0.02 94 1014.3
20260905223516 62 0.0 4.0 0.00 0.02 0.02 93 1014.4
20260905223016 62 315 2.0 4.0 0.00 0.02 0.02 93 1014.3
20260905222516 62 293 2.0 4.0 0.00 0.02 0.02 93 1014.1
20260905222016 62 315 2.0 5.0 0.00 0.02 0.02 93 1014.1
20260905221536 62 315 2.0 5.0 0.00 0.02 0.02 93 1014.2
20260905221016 63 315 2.0 4.0 0.00 0.02 0.02 93 1014.2
20260905220516 63 293 2.0 6.0 0.00 0.02 0.02 92 1014.1
20260905220036 63 315 3.0 7.0 0.00 0.02 0.02 92 1014.0
20260905215536 63 315 2.0 6.0 0.00 0.02 0.02 92 1014.1
20260905215016 63 293 2.0 4.0 0.00 0.02 0.02 92 1014.1
20260905214516 63 315 2.0 7.0 0.00 0.02 0.02 91 1014.1
20260905214016 63 293 1.0 3.0 0.00 0.02 0.02 91 1014.2
20260905213516 63 315 1.0 3.0 0.00 0.02 0.02 91 1014.1
20260905213036 63 293 1.0 4.0 0.00 0.02 0.02 91 1014.0
20260905212516 64 315 3.0 7.0 0.00 0.02 0.02 91 1014.0
20260905212017 64 315 3.0 7.0 0.00 0.02 0.02 90 1013.9
20260905211516 64 315 4.0 9.0 0.00 0.02 0.02 90 1013.8
20260905211016 64 315 3.0 7.0 0.00 0.02 0.02 90 1013.9
20260905210516 64 315 2.0 4.0 0.00 0.02 0.02 92 1013.8
20260905210016 64 315 3.0 6.0 0.00 0.02 0.02 92 1013.8
20260905205516 64 315 2.0 4.0 0.00 0.02 0.02 92 1013.7
20260905205016 64 315 3.0 8.0 0.00 0.02 0.02 91 1013.7
20260905204516 64 315 4.0 8.0 0.00 0.02 0.02 91 1013.7
20260905204016 64 315 3.0 7.0 0.00 0.02 0.02 91 1013.7
20260905203516 64 293 1.0 3.0 0.00 0.02 0.02 91 1013.7
20260905203016 64 315 2.0 5.0 0.00 0.02 0.02 90 1013.6
20260905202516 64 315 3.0 7.0 0.00 0.02 0.02 90 1013.7
20260905202016 64 315 2.0 5.0 0.00 0.02 0.02 91 1013.6
20260905201516 64 315 2.0 6.0 0.00 0.02 0.02 91 1013.6
20260905201016 64 315 3.0 8.0 0.00 0.02 0.02 91 1013.6
20260905200516 64 315 3.0 6.0 0.00 0.02 0.02 90 1013.5
20260905200016 64 315 2.0 7.0 0.00 0.02 0.02 90 1013.5
20260905195516 64 315 2.0 8.0 0.00 0.02 0.02 89 1013.4
20260905195016 65 315 2.0 6.0 0.00 0.02 0.02 88 1013.5
20260905194536 65 315 2.0 6.0 0.00 0.02 0.02 89 1013.5
20260905194036 65 315 3.0 7.0 0.00 0.02 0.02 88 1013.4
20260905193516 65 315 3.0 7.0 0.00 0.02 0.02 89 1013.4
20260905193016 65 315 3.0 7.0 0.00 0.02 0.02 88 1013.4
20260905192516 65 315 4.0 9.0 0.00 0.02 0.02 88 1013.4
20260905192016 65 293 2.0 7.0 0.00 0.02 0.02 91 1013.4
20260905191516 65 315 3.0 6.0 0.00 0.02 0.02 91 1013.4
20260905191016 64 315 4.0 8.0 0.00 0.02 0.02 92 1013.4
20260905190516 64 315 5.0 10.0 0.00 0.02 0.02 90 1013.4
20260905190016 64 315 3.0 7.0 0.00 0.02 0.02 90 1013.4
20260905185516 64 315 3.0 6.0 0.00 0.02 0.02 91 1013.4
20260905185016 64 315 3.0 8.0 0.00 0.02 0.02 92 1013.4
20260905184516 63 315 2.0 4.0 0.00 0.02 0.02 92 1013.4
20260905184016 63 315 3.0 5.0 0.00 0.02 0.02 93 1013.4
20260905183516 63 270 1.0 3.0 0.01 0.02 0.02 94 1013.4
20260905183016 63 293 2.0 5.0 0.01 0.02 0.02 94 1013.4
20260905182516 63 293 2.0 5.0 0.02 0.02 0.02 94 1013.4
20260905182017 64 315 1.0 4.0 0.02 0.02 0.02 93 1013.5
20260905181516 64 0.0 2.0 0.02 0.02 0.02 94 1013.4
20260905181016 63 293 1.0 5.0 0.02 0.02 0.02 95 1013.4
20260905180516 63 315 3.0 7.0 0.02 0.02 0.02 95 1013.4
20260905180016 62 315 2.0 4.0 0.02 0.02 0.02 95 1013.5
20260905175556 62 293 1.0 2.0 0.02 0.02 0.02 96 1013.5
20260905175016 62 270 1.0 2.0 0.02 0.02 0.02 96 1013.4
20260905174516 62 0.0 1.0 0.02 0.02 0.02 95 1013.4
20260905174036 62 0.0 2.0 0.02 0.02 0.02 94 1013.5
20260905173516 63 315 2.0 4.0 0.01 0.01 0.01 92 1013.5
20260905173036 64 315 2.0 10.0 0.01 0.01 0.01 91 1013.4
20260905172516 64 315 5.0 10.0 0.00 0.00 0.00 88 1013.4
20260905172016 65 338 3.0 5.0 0.00 0.00 0.00 87 1013.3
20260905171536 65 315 2.0 7.0 0.00 0.00 0.00 87 1013.3
20260905171016 65 315 3.0 9.0 0.00 0.00 0.00 89 1013.2
20260905170516 64 315 4.0 9.0 0.00 0.00 0.00 89 1013.3
20260905170016 64 315 2.0 6.0 0.00 0.00 0.00 91 1013.3
20260905165516 64 315 3.0 6.0 0.00 0.00 0.00 90 1013.4
20260905165016 64 270 1.0 6.0 0.00 0.00 0.00 91 1013.4
20260905164516 64 315 2.0 7.0 0.00 0.00 0.00 90 1013.4
20260905164016 64 338 2.0 7.0 0.00 0.00 0.00 88 1013.4
20260905163516 65 338 2.0 8.0 0.00 0.00 0.00 87 1013.4
20260905163016 66 315 3.0 6.0 0.00 0.00 0.00 86 1013.2
20260905162516 65 338 1.0 4.0 0.00 0.00 0.00 87 1013.3
20260905162016 65 293 2.0 4.0 0.00 0.00 0.00 89 1013.5
20260905161516 64 315 3.0 8.0 0.00 0.00 0.00 88 1013.4
20260905161036 64 315 3.0 6.0 0.00 0.00 0.00 88 1013.4
20260905160516 64 315 2.0 5.0 0.00 0.00 0.00 90 1013.5
20260905160036 63 315 2.0 8.0 0.00 0.00 0.00 90 1013.5
20260905155516 63 315 2.0 5.0 0.00 0.00 0.00 90 1013.5
20260905155016 63 315 2.0 5.0 0.00 0.00 0.00 90 1013.6
20260905154516 64 315 3.0 6.0 0.00 0.00 0.00 89 1013.6
20260905154016 64 338 3.0 6.0 0.00 0.00 0.00 88 1013.5
20260905153516 64 315 3.0 6.0 0.00 0.00 0.00 87 1013.5
20260905153016 64 315 2.0 8.0 0.00 0.00 0.00 88 1013.6
20260905152536 63 315 2.0 5.0 0.00 0.00 0.00 90 1013.7
20260905152016 63 293 1.0 3.0 0.00 0.00 0.00 90 1013.7
20260905151516 63 315 2.0 5.0 0.00 0.00 0.00 90 1013.7
20260905151036 63 315 2.0 5.0 0.00 0.00 0.00 90 1013.7
20260905150516 63 315 1.0 4.0 0.00 0.00 0.00 90 1013.7
20260905150016 63 315 1.0 3.0 0.00 0.00 0.00 90 1013.6
20260905145516 63 45 1.0 4.0 0.00 0.00 0.00 90 1013.5
20260905145016 64 315 1.0 4.0 0.00 0.00 0.00 88 1013.4
20260905144557 63 315 1.0 3.0 0.00 0.00 0.00 92 1013.4
20260905144016 62 315 2.0 5.0 0.00 0.00 0.00 91 1013.5
20260905143556 62 315 1.0 4.0 0.00 0.00 0.00 92 1013.5
20260905143016 63 315 3.0 6.0 0.00 0.00 0.00 90 1013.5
20260905142536 63 315 2.0 5.0 0.00 0.00 0.00 92 1013.5
20260905142036 63 293 1.0 4.0 0.00 0.00 0.00 91 1013.5
20260905141516 62 293 1.0 2.0 0.00 0.00 0.00 92 1013.6
20260905141016 63 315 2.0 5.0 0.00 0.00 0.00 90 1013.6
20260905140536 63 0.0 2.0 0.00 0.00 0.00 89 1013.5
20260905140016 63 248 1.0 3.0 0.00 0.00 0.00 90 1013.5
20260905135516 63 0.0 3.0 0.00 0.00 0.00 92 1013.5
20260905135036 62 315 1.0 4.0 0.00 0.00 0.00 91 1013.5
20260905134536 62 0.0 3.0 0.00 0.00 0.00 93 1013.6
20260905134036 61 0.0 3.0 0.00 0.00 0.00 94 1013.5
20260905133517 60 315 1.0 4.0 0.00 0.00 0.00 96 1013.5
20260905133016 60 0.0 2.0 0.00 0.00 0.00 96 1013.5
20260905132516 60 270 1.0 2.0 0.00 0.00 0.00 95 1013.5
20260905132016 60 0.0 2.0 0.00 0.00 0.00 95 1013.4
20260905131517 60 0.0 1.0 0.00 0.00 0.00 96 1013.3
20260905131016 60 270 1.0 3.0 0.00 0.00 0.00 95 1013.3
20260905130516 60 293 2.0 3.0 0.00 0.00 0.00 96 1013.3
20260905130036 60 315 1.0 4.0 0.00 0.00 0.00 96 1013.3
20260905125516 60 315 1.0 2.0 0.00 0.00 0.00 96 1013.3
20260905125036 60 315 2.0 3.0 0.00 0.00 0.00 96 1013.3
20260905124538 59 0.0 1.0 0.00 0.00 0.00 97 1013.2
20260905124016 59 315 1.0 3.0 0.00 0.00 0.00 97 1013.1
20260905123556 59 315 1.0 3.0 0.00 0.00 0.00 97 1013.2
20260905123016 59 293 1.0 3.0 0.00 0.00 0.00 96 1013.2
20260905122517 59 315 2.0 4.0 0.00 0.00 0.00 97 1013.1
20260905122016 59 315 1.0 3.0 0.00 0.00 0.00 97 1013.2
20260905121516 59 0.0 2.0 0.00 0.00 0.00 97 1013.2
20260905121016 59 0.0 2.0 0.00 0.00 0.00 97 1013.1
20260905120516 58 0.0 2.0 0.00 0.00 0.00 98 1013.1
20260905120017 58 315 1.0 3.0 0.00 0.00 0.00 98 1013.0
20260905115516 58 0.0 2.0 0.00 0.00 0.00 99 1013.0
20260905115016 58 0.0 0.0 0.00 0.00 0.00 99 1012.9
20260905114516 58 315 1.0 3.0 0.00 0.00 0.00 99 1012.9
20260905114056 57 315 1.0 3.0 0.00 0.00 0.00 100 1012.9
20260905113516 57 0.0 2.0 0.00 0.00 0.00 100 1012.9
20260905113037 57 0.0 1.0 0.00 0.00 0.00 100 1012.9
20260905112516 57 0.0 0.0 0.00 0.00 0.00 100 1012.8
20260905112016 57 0.0 1.0 0.00 0.00 0.00 100 1012.7
20260905111516 57 0.0 1.0 0.00 0.00 0.00 100 1012.6
20260905111016 56 0.0 1.0 0.00 0.00 0.00 100 1012.6
20260905110536 56 0.0 1.0 0.00 0.00 0.00 100 1012.5
20260905110017 55 0.0 2.0 0.00 0.00 0.00 100 1012.4
20260905105557 55 0.0 0.0 0.00 0.00 0.00 100 1012.5
20260905105036 55 0.0 1.0 0.00 0.00 0.00 100 1012.4
20260905104516 54 0.0 0.0 0.00 0.00 0.00 100 1012.5
20260905104016 54 0.0 0.0 0.00 0.00 0.00 100 1012.4
20260905103516 53 0.0 0.0 0.00 0.00 0.00 100 1012.4
20260905103017 53 0.0 0.0 0.00 0.00 0.00 100 1012.4
20260905102516 54 0.0 0.0 0.00 0.00 0.00 100 1012.4
20260905102036 54 0.0 0.0 0.00 0.00 0.00 100 1012.4
20260905101516 53 0.0 2.0 0.00 0.00 0.00 100 1012.4
20260905101016 53 0.0 0.0 0.00 0.00 0.00 100 1012.4
20260905100516 53 0.0 1.0 0.00 0.00 0.00 100 1012.4
20260905100016 52 0.0 2.0 0.00 0.00 0.00 100 1012.4
20260905095516 52 0.0 0.0 0.00 0.00 0.00 100 1012.3
20260905095016 52 0.0 0.0 0.00 0.00 0.00 100 1012.3
20260905094516 52 0.0 0.0 0.00 0.00 0.00 100 1012.3
20260905094016 52 0.0 0.0 0.00 0.00 0.00 100 1012.2
20260905093517 52 0.0 0.0 0.00 0.00 0.00 99 1012.2
20260905093037 52 0.0 0.0 0.00 0.00 0.00 100 1012.1
20260905092516 52 0.0 0.0 0.00 0.00 0.00 99 1012.1
20260905092017 52 0.0 0.0 0.00 0.00 0.00 100 1012.1
20260905091517 52 0.0 0.0 0.00 0.00 0.00 99 1012.1
20260905091016 53 0.0 0.0 0.00 0.00 0.00 99 1012.2
20260905090516 53 0.0 0.0 0.00 0.00 0.00 99 1012.1
20260905090016 53 0.0 0.0 0.00 0.00 0.00 99 1012.1
20260905085516 53 0.0 0.0 0.00 0.00 0.00 99 1012.1
20260905085016 53 0.0 0.0 0.00 0.00 0.00 99 1012.1
20260905084517 53 0.0 0.0 0.00 0.00 0.00 99 1012.1
20260905084016 53 0.0 0.0 0.00 0.00 0.00 99 1012.1
20260905083516 53 0.0 1.0 0.00 0.00 0.00 99 1012.1
20260905083017 54 0.0 0.0 0.00 0.00 0.00 99 1012.1
20260905082516 54 0.0 0.0 0.00 0.00 0.00 99 1012.1
20260905082037 54 0.0 0.0 0.00 0.00 0.00 99 1012.1
20260905081516 54 0.0 1.0 0.00 0.00 0.00 99 1012.2
20260905081017 54 0.0 0.0 0.00 0.00 0.00 99 1012.2
20260905080516 55 0.0 0.0 0.00 0.00 0.00 99 1012.2
20260905080056 55 0.0 0.0 0.00 0.00 0.00 99 1012.2
20260905075536 55 0.0 0.0 0.00 0.00 0.00 99 1012.1
20260905075016 55 0.0 0.0 0.00 0.00 0.00 99 1012.1
20260905074516 55 0.0 1.0 0.00 0.00 0.00 98 1012.1
20260905074017 56 0.0 0.0 0.00 0.00 0.00 99 1012.1
20260905073516 56 0.0 0.0 0.00 0.00 0.00 99 1012.0
20260905073017 56 0.0 0.0 0.00 0.00 0.00 99 1012.0
20260905072516 55 0.0 2.0 0.00 0.00 0.00 99 1012.0
20260905072016 55 0.0 0.0 0.00 0.00 0.00 99 1012.1
20260905071516 55 0.0 0.0 0.00 0.00 0.00 99 1012.1
20260905071016 55 0.0 0.0 0.00 0.00 0.00 99 1012.2
20260905070517 55 0.0 0.0 0.00 0.00 0.00 99 1012.1
20260905070037 56 0.0 0.0 0.00 0.00 0.00 99 1012.2
20260905065517 56 0.0 0.0 0.00 0.00 0.00 99 1012.3
20260905065017 56 0.0 0.0 0.00 0.00 0.00 99 1012.3
20260905064516 56 0.0 0.0 0.00 0.00 0.00 99 1012.4
20260905064017 56 0.0 0.0 0.00 0.00 0.00 99 1012.5
20260905063516 56 0.0 0.0 0.00 0.00 0.00 99 1012.5
20260905063016 56 0.0 0.0 0.00 0.00 0.00 99 1012.6
20260905062536 56 0.0 0.0 0.00 0.00 0.00 99 1012.6
20260905062016 56 0.0 0.0 0.00 0.00 0.00 99 1012.6
20260905061516 56 0.0 0.0 0.00 0.00 0.00 99 1012.6
20260905061037 56 0.0 0.0 0.00 0.00 0.00 99 1012.6
20260905060516 56 0.0 0.0 0.00 0.00 0.00 98 1012.6
20260905060016 56 0.0 0.0 0.00 0.00 0.00 98 1012.7
20260905055516 56 0.0 0.0 0.00 0.00 0.00 98 1012.7
20260905055016 57 0.0 0.0 0.00 0.00 0.00 98 1012.6
20260905054516 57 0.0 0.0 0.00 0.00 0.00 98 1012.7
20260905054016 57 0.0 0.0 0.00 0.00 0.00 98 1012.6
20260905053516 57 0.0 0.0 0.00 0.00 0.00 98 1012.6
20260905053017 57 0.0 1.0 0.00 0.00 0.00 98 1012.6
20260905052517 57 0.0 0.0 0.00 0.00 0.00 97 1012.6
20260905052016 57 113 1.0 3.0 0.00 0.00 0.00 98 1012.6
20260905051516 57 0.0 1.0 0.00 0.00 0.00 98 1012.7
20260905051016 57 0.0 0.0 0.00 0.00 0.00 98 1012.7
20260905050536 57 0.0 0.0 0.00 0.00 0.00 98 1012.6
20260905050016 57 0.0 0.0 0.00 0.00 0.00 98 1012.6
20260905045516 57 0.0 0.0 0.00 0.00 0.00 98 1012.7
20260905045016 57 0.0 0.0 0.00 0.00 0.00 98 1012.8
20260905044516 57 0.0 0.0 0.00 0.00 0.00 98 1012.8
20260905044016 57 0.0 0.0 0.00 0.00 0.00 98 1012.9
20260905043516 57 0.0 0.0 0.00 0.00 0.00 97 1012.9
20260905043017 57 0.0 0.0 0.00 0.00 0.00 97 1013.0
20260905042517 57 0.0 0.0 0.00 0.00 0.00 97 1012.9
20260905042016 57 0.0 0.0 0.00 0.00 0.00 97 1013.0
20260905041517 57 0.0 0.0 0.00 0.00 0.00 97 1013.0
20260905041036 58 0.0 0.0 0.00 0.00 0.00 97 1013.1
20260905040516 58 0.0 0.0 0.00 0.00 0.00 97 1013.0
20260905040136 58 0.0 0.0 0.00 0.00 0.00 97 1013.0
20260905035516 57 0.0 1.0 0.00 0.00 0.00 97 1013.0
20260905035017 58 0.0 0.0 0.00 0.00 0.00 96 1013.0
20260905034516 58 0.0 0.0 0.00 0.00 0.00 96 1013.2
20260905034017 58 0.0 0.0 0.00 0.00 0.00 95 1013.2
20260905033537 58 0.0 0.0 0.00 0.00 0.00 95 1012.9
20260905033016 59 0.0 0.0 0.00 0.00 0.00 95 1012.8
20260905032517 59 0.0 0.0 0.00 0.00 0.00 95 1012.8
20260905032016 59 0.0 0.0 0.00 0.00 0.00 94 1012.7
20260905031517 60 0.0 0.0 0.00 0.00 0.00 94 1012.7
20260905031017 60 0.0 0.0 0.00 0.00 0.00 94 1012.8
20260905030517 60 0.0 0.0 0.00 0.00 0.00 94 1012.9
20260905030017 60 0.0 0.0 0.00 0.00 0.00 94 1013.0
20260905025517 60 0.0 0.0 0.00 0.00 0.00 94 1013.0
20260905025017 60 0.0 0.0 0.00 0.00 0.00 94 1013.0
20260905024517 60 0.0 0.0 0.00 0.00 0.00 94 1013.0
20260905024017 60 0.0 0.0 0.00 0.00 0.00 93 1013.0
20260905023516 60 0.0 1.0 0.00 0.00 0.00 94 1012.9